Preview of NWS' New Version of Forecast
This preview is not operational and should not be used for support decisions.
Latest weather observations around

Ottawa Municipal Airport (KOWI)

Using English Units (Switch to International System of Units)
Date/ Time (CST) Wind (mph) Vis. (mi) Weather Sky Cond. Temp (°F) Rel. Humidity Wind Chill (°F) Heat Index (°F) Pressure Precip. (in)
Air Dwpt 6 hour Altimeter (inHg) Sea level (inHg) 1 hr 3 hr 6 hr
Max Min
Jan 18 07:55   0.75 Clear   34 34     100%     29.93        
Jan 18 07:35   0.5 Clear   34 34     100%     29.93        
Jan 18 07:15 ESE 12 0.75 Clear   34 34     100% 25   29.95        
Jan 18 06:55 SE 12 0.75 Clear   34 34     100% 25   29.97        
Jan 18 06:35 SE 9 0.75 Clear   34 34     100% 26   29.97        
Jan 18 06:15 ESE 10 0.75 Clear   34 34     100% 26   29.96        
Jan 18 05:55 SE 12 1.25 Clear   34 34     100% 25   29.97        
Jan 18 05:35 SE 13 3 Clear   34 34     100% 25   29.98        
Jan 18 05:15 SE 14 6 Fog/Mist OVC004 34 34     100% 24   29.99        
Jan 18 04:55 SE 8 7 Clear   34 34     100% 27   30        
Jan 18 04:35 SSE 14 6 Clear   34 34     100% 24   30.01        
Jan 18 04:15 SSE 13 7 Clear   34 34     100% 25   30.01        
Jan 18 03:55 SE 12 4 Clear   34 34     100% 25   30.03        
Jan 18 03:35 SE 12 3 Fog/Mist OVC004 34 34     100% 25   30.05        
Jan 18 03:15 SE 10 3 Clear   34 34     100% 26   30.06        
Jan 18 02:55 SE 7 2.5 Clear   34 34     100% 28   30.08        
Jan 18 02:35 SE 6 3 Clear   34 34     100% 29   30.08        
Jan 18 02:15 SSE 5 3 Clear   34 34     100% 30   30.09        
Jan 18 01:55 SE 5 3 Clear   34 34     100% 30   30.09        
Jan 18 01:35 SE 5 3 Clear   34 34     100% 30   30.1        
Jan 18 01:15 ESE 3 3 Clear   34 34     100% 31   30.1        
Jan 18 00:55 ESE 5 2.5 Clear   34 34     100% 30   30.1        
Jan 18 00:35 SE 3 2.5 Clear   34 34     100% 31   30.11        
Jan 18 00:15 ESE 3 1.25 Clear   34 34     100% 31   30.12        
Jan 17 23:55 E 5 1.5 Clear   34 34     100% 30   30.11        
Jan 17 23:35 SSE 3 1.75 Clear   34 34     100% 31   30.12        
Jan 17 23:15 SSE 3 2.5 Clear   34 34     100% 31   30.13        
Jan 17 22:55 Calm 4 Clear   34 34     100%     30.15        
Jan 17 22:35 SSE 3 5 Clear   34 34     100% 31   30.14        
Jan 17 22:15 SSE 5 6 Clear   34 34     100% 30   30.15        
Jan 17 21:55 Calm 8 Clear   34 34     100%     30.16        
Jan 17 21:35 NE 5 7 Clear   34 34     100% 30   30.14        
Jan 17 21:15 NNE 3 6 Clear   34 34     100% 31   30.14        
Jan 17 20:55 E 5 6 Clear   34 34     100% 30   30.12        
Jan 17 20:35 Calm 7 Clear   34 34     100%     30.13        
Jan 17 20:15 Calm 10 Clear   34 32     93%     30.13        
Jan 17 19:55 N 5 9 Clear   34 34     100% 30   30.13        
Jan 17 19:35 N 5 10 Clear   34 34     100% 30   30.13        
Jan 17 19:15 N 5 10 Clear   34 34     100% 30   30.12        
Jan 17 18:55 NW 6 9 Clear   34 34     100% 29   30.13        
Jan 17 18:35 NNW 5 10 Clear   34 34     100% 30   30.13        
Jan 17 18:15 NW 3 10 Clear   34 34     100% 31   30.13        
Jan 17 17:55 W 6 7 Clear   34 34     100% 29   30.14        
Jan 17 17:35   4 Clear   34 34     100%     30.14        
Jan 17 17:15 W 6 3 Clear   34 34     100% 29   30.12        
Jan 17 16:55 W 5 1.75 Clear   34 34     100% 30   30.12        
Jan 17 16:35 WNW 5 2 Clear   34 34     100% 30   30.12        
Jan 17 16:15 WNW 5 2 Clear   36 34     93% 32   30.11        
Jan 17 15:55   3 Clear   36 34     93%     30.11        
Jan 17 15:35   5 Clear   36 34     93%     30.11        
Jan 17 15:15   6 Clear   36 34     93%     30.1        
Jan 17 14:55 Calm 5 Clear   36 34     93%     30.1        
Jan 17 14:35   5 Clear   36 34     93%     30.1        
Jan 17 14:15   5 Clear   36 34     93%     30.1        
Jan 17 13:55   5 Clear   36 34     93%     30.1        
Jan 17 13:35   5 Clear   34 34     100%     30.11        
Jan 17 13:15   3 Clear   34 34     100%     30.11        
Jan 17 12:55 WNW 6 2 Clear   34 34     100% 29   30.12        
Jan 17 12:35 W 9 3 Clear   34 34     100% 26   30.14        
Jan 17 12:15 WNW 8 4 Clear   34 34     100% 27   30.14        
Jan 17 11:55 WNW 8 1.5 Clear   34 34     100% 27   30.15        
Jan 17 11:35   0.5 Fog/Mist OVC003 34 34     100%     30.14        
Jan 17 11:15   0.5 Clear   34 34     100%     30.15        
Jan 17 10:55   0.5 Clear   34 34     100%     30.16        
Jan 17 10:35   0.5 Clear   34 34     100%     30.14        
Jan 17 10:15   0.5 Clear   34 34     100%     30.13        
Jan 17 09:55   0.5 Clear   34 32     93%     30.12        
Jan 17 09:35   0.75 Clear   32 32     100%     30.12        
Jan 17 09:15   0.75 Clear   34 32     93%     30.11        
Jan 17 08:55   1.25 Clear   34 32     93%     30.1        
Jan 17 08:35 NW 6 3 Clear   34 32     93% 29   30.1        
Jan 17 08:15 NNW 7 4 Clear   34 32     93% 28   30.09        
Jan 17 07:55 N 3 6 Clear   34 32     93% 31   30.09        
Jan 17 07:35 NNW 7 1.5 Clear   32 32     100% 26   30.09        
Jan 17 07:15 NW 6 0.75 Clear   34 32     93% 29   30.08        
Jan 17 06:55 NNW 6 0.5 Clear   32 32     100% 26   30.08        
Jan 17 06:35 NNW 6 0.25 Clear   32 32     100% 26   30.07        
Jan 17 06:15 N 8 0.25 Clear   32 32     100% 25   30.07        
Jan 17 05:55 N 7 0.5 Clear   32 32     100% 26   30.06        
Jan 17 05:35 N 9 0.5 Clear   32 32     100% 24   30.06        
Jan 17 05:15 NNW 7 0.25 Clear   32 32     100% 26   30.05        
Jan 17 04:55 NNW 9 0.25 Clear   32 32     100% 24   30.05        
Jan 17 04:35 N 8 0.25 Clear   32 32     100% 25   30.05        
Jan 17 04:15 N 7 0.25 Clear   32 32     100% 26   30.04        
Jan 17 03:55 N 7 0.25 Clear   32 32     100% 26   30.04        
Jan 17 03:35 N 8 0.25 Clear   32 32     100% 25   30.04        
Jan 17 03:15 N 8 0.75 Clear   34 32     93% 27   30.04        
Jan 17 02:55 N 8 1 Clear   34 32     93% 27   30.04        
Jan 17 02:35 N 7 2 Clear   34 34     100% 28   30.04        
Jan 17 02:15 N 7 1.75 Clear   34 34     100% 28   30.04        
Jan 17 01:55 NNE 6 2 Clear   34 34     100% 29   30.03        
Jan 17 01:35 N 6 1.5 Fog/Mist OVC002 34 34     100% 29   30.04        
Jan 17 01:15 N 6 1.25 Clear   34 34     100% 29   30.04        
Jan 17 00:55 N 6 1.25 Clear   34 34     100% 29   30.04        
Jan 17 00:35 N 6 1.25 Clear   34 34     100% 29   30.05        
Jan 17 00:15 NNE 5 1.75 Clear   34 34     100% 30   30.06        
Jan 16 23:55 NNE 5 2 Clear   34 34     100% 30   30.06        
Jan 16 23:35 NNE 6 2 Fog/Mist OVC003 34 34     100% 29   30.07        
Jan 16 23:15 NNE 6 1.75 Clear   34 34     100% 29   30.07        
Jan 16 22:55 N 6 1.75 Clear   34 34     100% 29   30.07        
Jan 16 22:35 NNE 5 1.75 Clear   34 34     100% 30   30.08        
Jan 16 22:15 NNE 7 1.75 Clear   34 34     100% 28   30.08        
Jan 16 21:55 N 6 1.75 Clear   34 34     100% 29   30.08        
Jan 16 21:35 NE 5 2 Clear   34 34     100% 30   30.07        
Jan 16 21:15 NE 5 2 Clear   34 34     100% 30   30.06        
Jan 16 20:55 ENE 5 2 Clear   34 34     100% 30   30.06        
Jan 16 20:35 ENE 5 1.75 Clear   34 34     100% 30   30.07        
Jan 16 20:15 E 5 2.5 Clear   34 34     100% 30   30.08        
Jan 16 19:55 ENE 6 2.5 Clear   34 34     100% 29   30.08        
Jan 16 19:35 NE 6 2.5 Clear   34 34     100% 29   30.08        
Jan 16 19:15 NE 7 2.5 Clear   34 34     100% 28   30.08        
Jan 16 18:55 ENE 6 3 Clear   34 34     100% 29   30.08        
Jan 16 18:35 NE 7 2.5 Clear   34 34     100% 28   30.07        
Jan 16 18:15 NE 9 2.5 Clear   34 34     100% 26   30.07        
Jan 16 17:55 ENE 7 2.5 Clear   34 34     100% 28   30.07        
Jan 16 17:35 ENE 7 2.5 Clear   34 34     100% 28   30.08        
Jan 16 17:15 NE 7 1.75 Clear   34 34     100% 28   30.08        
Jan 16 16:55   1.75 Clear   34 34     100%     30.08        
Jan 16 16:35   1.5 Clear   34 34     100%     30.08        
Jan 16 16:15 NE 6 1 Clear   34 34     100% 29   30.09        
Jan 16 15:55 NE 7 1 Clear   34 34     100% 28   30.09        
Jan 16 15:35   1 Clear   34 34     100%     30.1        
Jan 16 15:15 E 6 1.5 Clear   34 34     100% 29   30.09        
Jan 16 14:55 E 7 1.25 Clear   34 34     100% 28   30.09        
Jan 16 14:35 ENE 7 0.75 Clear   34 34     100% 28   30.1        
Jan 16 14:15 ENE 7 0.75 Clear   34 34     100% 28   30.1        
Jan 16 13:55 ENE 7 0.75 Clear   34 34     100% 28   30.11        
Jan 16 13:35 ENE 5 1 Clear   34 34     100% 30   30.12        
Jan 16 13:15 ENE 6 1 Clear   34 34     100% 29   30.13        
Jan 16 12:55 E 6 0.5 Clear   34 34     100% 29   30.13        
Jan 16 12:35 E 5 0.5 Clear   34 34     100% 30   30.15        
Jan 16 12:15 E 7 0.25 Clear   34 34     100% 28   30.16        
Jan 16 11:55 E 6 0.25 Clear   34 34     100% 29   30.17        
Jan 16 11:35 E 5 0.25 Fog OVC003 34 32     93% 30   30.19        
Jan 16 11:15 E 6   Clear   34 32     93% 29   30.19        
Jan 16 10:55 ENE 5   Clear   32 32     100% 27   30.19        
Jan 16 10:35 ENE 6   Clear   32 32     100% 26   30.19        
Jan 16 10:15 ENE 5   Clear   32 32     100% 27   30.19        
Jan 16 09:55 ENE 7   Clear   32 32     100% 26   30.17        
Jan 16 09:35 ENE 7 0.25 Clear   32 32     100% 26   30.18        
Jan 16 09:15 ENE 7   Clear   32 32     100% 26   30.18        
Jan 16 08:55 NE 12 0.25 Clear   32 32     100% 23   30.18        
Jan 16 08:35 NNE 9   Clear   32 32     100% 24   30.19        
Jan 16 08:15 NNE 7   Clear   32 32     100% 26   30.2        
Jan 16 07:55 NNE 7 0.25 Clear   32 32     100% 26   30.21        
Jan 16 07:35 NNE 5 0.25 Clear   32 32     100% 27   30.21        
Jan 16 07:15 NNE 6 0.5 Clear   32 32     100% 26   30.21        
Jan 16 06:55 N 6 0.25 Clear   32 32     100% 26   30.2        
Jan 16 06:35 NNE 9 0.25 Clear   32 32     100% 24   30.18        
Jan 16 06:15 NNE 8 0.25 Clear   32 32     100% 25   30.17        
Jan 16 05:55 NNE 8   Clear   32 32     100% 25   30.17        
Jan 16 05:35 Calm   Clear   32 32     100%     30.16        
Jan 16 05:15 Calm   Clear   32 32     100%     30.17        
Jan 16 04:55 Calm 0.25 Clear   34 34     100%     30.17        
Jan 16 04:35 Calm   Clear   34 32     93%     30.16        
Jan 16 04:15 Calm 0.25 Fog OVC002 32 32     100%     30.16        
Jan 16 03:55 Calm   Clear   32 32     100%     30.17        
Jan 16 03:35 Calm   Clear   34 32     93%     30.17        
Jan 16 03:10 Calm   Clear   32 32     100%     30.17        
Jan 16 02:55 Calm 0.5 Clear   32 32     100%     30.17        
Jan 16 02:35 Calm   Clear   32 32     100%     30.17        
Jan 16 02:15 NNW 5   Clear   32 32     100% 27   30.17        
Jan 16 01:55 NNW 3   Clear   32 32     100% 29   30.17        
Jan 16 01:35 Calm   Clear   32 32     100%     30.16        
Jan 16 01:15 NW 3   Clear   32 32     100% 29   30.16        
Jan 16 00:55 WNW 3   Clear   32 32     100% 29   30.16        
Jan 16 00:35 Calm   Clear   32 32     100%     30.16        
Jan 16 00:15 Calm   Clear   32 32     100%     30.17        
Jan 15 23:55 Calm   Clear   32 32     100%     30.17        
Jan 15 23:35 NW 5   Clear   32 32     100% 27   30.17        
Jan 15 23:15 Calm   Clear   32 32     100%     30.17        
Jan 15 22:55 Calm   Clear   32 32     100%     30.16        
Jan 15 22:35 Calm 0.25 Fog OVC002 32 32     100%     30.16        
Jan 15 22:15 NW 5   Clear   32 32     100% 27   30.16        
Jan 15 21:55 Calm   Clear   32 32     100%     30.16        
Jan 15 21:35 WNW 5   Clear   32 32     100% 27   30.16        
Jan 15 21:15 Calm   Clear   32 32     100%     30.15        
Jan 15 20:55 Calm   Clear   34 32     93%     30.14        
Jan 15 20:35 Calm 0.25 Fog OVC002 34 34     100%     30.14        
Jan 15 20:15 WSW 3 0.25 Fog OVC002 34 34     100% 31   30.14        
Jan 15 19:55 SW 6   Clear   34 34     100% 29   30.14        
Jan 15 19:35 SSW 5   Clear   34 34     100% 30   30.14        
Jan 15 19:15 SSW 7   Clear   34 34     100% 28   30.14        
Jan 15 18:55 SSW 7   Clear   34 34     100% 28   30.15        
Jan 15 18:35 SSW 7   Clear   34 34     100% 28   30.14        
Jan 15 18:15 SSW 8 0.25 Clear   34 34     100% 27   30.14        
Jan 15 17:55 S 7   Clear   34 34     100% 28   30.13        
Jan 15 17:35 S 9 0.25 Clear   34 34     100% 26   30.13        
Jan 15 17:15 S 5 0.5 Clear   34 34     100% 30   30.13        
Jan 15 16:55 SSW 8 1 Clear   34 34     100% 27   30.13        
Jan 15 16:35 SSW 10 1.75 Clear   34 34     100% 26   30.14        
Jan 15 16:15 SSW 9 2 Clear   34 34     100% 26   30.14        
Jan 15 15:55 SSW 8 2 Clear   34 34     100% 27   30.15        
Jan 15 15:35 SSW 9 1.75 Clear   34 34     100% 26   30.14        
Jan 15 15:15 SSW 13 2 Clear   34 34     100% 25   30.14        
Jan 15 14:55 SSW 10 1.75 Clear   34 34     100% 26   30.14        
Jan 15 14:35 SSW 10 2 Clear   34 34     100% 26   30.14        
Jan 15 14:15 SSW 10 2 Clear   34 34     100% 26   30.15        
Jan 15 13:55 SSW 9 1.75 Clear   34 34     100% 26   30.15        
Jan 15 13:35 SSW 10 1.75 Clear   34 34     100% 26   30.16        
Jan 15 13:15 S 9 1.25 Clear   34 32     93% 26   30.16        
Jan 15 12:55 S 10 1.5 Clear   34 32     93% 26   30.18        
Jan 15 12:35 SSW 9 1.25 Clear   32 32     100% 24   30.19        
Jan 15 11:55 SSW 12 1.5 Clear   32 32     100% 23   30.22        
Jan 15 11:35 S 12 1.75 Fog/Mist OVC003 32 32     100% 23   30.24        
Jan 15 11:15 SSW 13 1.5 Fog/Mist OVC003 32 32     100% 23   30.25        
Jan 15 10:55 SSW 10 1.25 Clear   32 32     100% 24   30.25        
Jan 15 10:35 SSW 12 0.75 Clear   32 32     100% 23   30.26        
Jan 15 10:15 SSW 13 1.25 Clear   32 32     100% 23   30.26        
Jan 15 09:55 SSW 13 1 Clear   32 32     100% 23   30.25        
Jan 15 09:35 SSW 10 1.25 Fog/Mist OVC003 32 32     100% 24   30.25        
Jan 15 09:15 S 12 0.5 Clear   32 32     100% 23   30.24        
Jan 15 08:55 SSW 13 1.25 Clear   32 32     100% 23   30.24        
Jan 15 08:35 SSW 13 1.25 Clear   32 32     100% 23   30.24        
Jan 15 08:15 SSW 13 2 Clear   32 32     100% 23   30.24        
Jan 15 07:35 S 16 3 Fog/Mist OVC004 32 32     100% 21   30.23        
May 14 22:00 E 13 10 Clear   72 59     65%   71 29.82        
May 14 21:20 SW 14 10 Clear   72 59     65%   71 29.83        
May 14 20:40   6 Clear   70 63     78%     29.83        
May 14 17:20 SSW 14 10 Clear   72 59     65%   71 29.82        
May 14 15:40 S 7 10 Clear   81 70     70%   84 29.84        
May 14 14:00 WSW 7 9 Clear   86 68     55%   89 29.88        
May 14 11:20 SSW 13 9 Clear   81 68     66%   83 29.92        
May 14 03:20 S 7 10 Clear   70 64     83%     29.9        
May 13 21:20 SSE 10 10 Clear   75 66     74%   76 29.89        
May 13 05:20 S 7 9 Clear   66 64     94%     29.95        
May 12 08:00 S 12 10 Clear   72 64     78%   72 29.86        
May 12 03:00 S 14 10 Clear   73 64     73%   74 29.83        
May 12 00:00 S 13 10 Clear   75 64     69%   76 29.82        
May 11 21:20 S 13 10 Clear   75 63     65%   75 29.76        
May 11 19:40 S 16 9 Clear   81 64     58%   82 29.72